Kuiper-00031

operational
NORAD ID: 63744 Int'l Des: 2025-088 Owner: KUIP Country: US Constellation: kuiper
LEOCIRCULAR

Über Kuiper-00031

Beschreibung wird geladen...

Live-Position

3D-Globus wird geladen...

Nächste Überflüge

Höhenverlauf

Altitude vs Time

uPlot chart will show altitude changes over time

Zweizeiliger Elementsatz

1 63744U 25088W 25306.43227163 .00003239 00000-0 45304-3 0 9997
2 63744 51.9004 299.3400 0005042 51.0918 309.0493 14.79997247 28699
Epoch: 2. Nov. 2025 • Age: 43 hours

Aktueller Status

Höhe 632.5 km
Geschwindigkeit 7.55 km/s
Subsatellitenpunkt 52.05°N, 97.05°W
Startdatum 28. Apr. 2025
Alter 0.5 years
Typ internet

Technische Details

Klassifizierung Payload
Masse 490.00 kg
Trockenmasse 490.00 kg
Gesamtmasse 490.00 kg
Länge 1.80 m
Durchmesser 0.70 m
Spannweite 5.00 m
Form Box + 2 pan
Hersteller KUIP
Bus-Typ Kuiper
Phasenstatus In Orbit
Besitzer/Staat KUIP/US

Große Konstellationen

Loading constellations...